Location: Pasadena, ca
(34.1243°N, 118.1037°W)
Time: 18:13:32
(UTC-07:00)

ISS - Pass Details

Date: 12 October 2017
Orbit: 401 x 408 km, 51.6° (Epoch: 20 October)

Event Time Altitude Azimuth Distance (km) Brightness Sun altitude
Rises 19:41:01 0° 323° (NW) 2,324 0.6 -17.2°
Reaches altitude 10° 19:43:20 10° 337° (NNW) 1,464 -0.7 -17.7°
Enters shadow 19:45:33 24° 17° (NNE) 891 -2.3 -18.2°
